« Back
NWS Peachtree City, Ga » Text Product » GA Regional Weather Roundup


Printer-friendly Version
Current Version              Previous Versions:   1  2  3  4  5  6  7  8  9  

Regional Weather Roundup

474
ASUS42 KFFC 031003
RWRGA
WEATHER ROUNDUP FOR GEORGIA
NATIONAL WEATHER SERVICE PEACHTREE CITY GA
500 AM EST TUE MAR 03 2015

NOTE: "FAIR" INDICATES FEW OR NO CLOUDS BELOW 12,000 FEET WITH NO
SIGNIFICANT WEATHER AND/OR OBSTRUCTIONS TO VISIBILITY.

* = USE WITH CAUTION. THE STATIONS MARKED WITH AN ASTERISK MAY NOT
REPORT WEATHER SUCH AS PRECIPITATION, FOG, OR THUNDER AND ARE NOT
QUALITY CONTROLLED BY NWS.

THE REMARK "TC" DENOTES TEMPERATURE READING IN DEGREES CELSIUS.

GAZ001>058-031100-
NORTH GEORGIA

CITY           SKY/WX    TMP DP  RH WIND       PRES   REMARKS
ATLANTA        CLOUDY    54  46  74 CALM      30.20R
ATHENS         CLOUDY    55  51  86 NE10      30.21R
CHAMBLEE       CLOUDY    52  44  74 CALM      30.20R
PEACHTREE CITY CLOUDY    54  49  83 CALM      30.21R
ROME           CLOUDY    48  40  73 NE5       30.19F
WEST ATLANTA   CLOUDY    52  44  74 CALM      30.20R
GAINESVILLE    CLOUDY    53  41  63 E9        30.23R
CARTERSVILLE   LGT RAIN  48  42  80 CALM      30.21F


CITY           SKY/WX    TMP DP  RH WIND       PRES   REMARKS
DALTON*        CLOUDY    45  41  87 CALM      30.22R
MARIETTA       DRIZZLE   52  45  76 NE3       30.20S
$$

GAZ059>098-102>109-031100-
CENTRAL GEORGIA

CITY           SKY/WX    TMP DP  RH WIND       PRES   REMARKS
AUGUSTA-BUSH   CLOUDY    59  55  87 E6        30.22R
AUGUSTA-DANIEL CLOUDY    60  54  80 E6        30.22R
COLUMBUS       CLOUDY    59  58  96 E3        30.18F FOG
MACON          CLOUDY    57  54  89 CALM      30.19F
ROBINS AFB     CLOUDY    59  53  79 CALM      30.18F


CITY           SKY/WX    TMP DP  RH WIND       PRES   REMARKS
LAGRANGE*      CLOUDY    58  56  92 CALM      30.19S
SYLVANIA*      RAIN      56  56 100 E6        30.23R
MILLEDGEVILLE* CLOUDY    57  55  94 CALM      30.19F
$$

GAZ099>101-110>166-031100-
SOUTH GEORGIA

CITY           SKY/WX    TMP DP  RH WIND       PRES   REMARKS
SAVANNAH       FOG       56  55  97 CALM      30.22S VSB 1
VALDOSTA       PTCLDY    54  53  97 CALM      30.19S FOG
ALMA           FOG       54  53  97 CALM      30.20S VSB 1/2
ST SIMONS      CLOUDY    60  57  89 CALM      30.21R
FT STEWART     CLOUDY    58  57  96 CALM      30.20R
ALBANY         FOG       54  54 100 SE3       30.21S VSB 1/4
HUNTER AFB     FOG       55  55 100 E6        30.20S VSB 1
MOODY AFB      FOG       54  53  97 NE1       30.19R VSB 1/2
BRUNSWICK      CLOUDY    59  57  94 E3        30.21F


CITY           SKY/WX    TMP DP  RH WIND       PRES   REMARKS
BAINBRIDGE*    FOG       55  55 100 CALM      30.18F VSB 1/2
MOULTRIE*      FOG       54  54 100 CALM      30.20S VSB 1/2
VIDALIA*       CLOUDY    61  61 100 CALM      30.20R
WAYCROSS*      FOG       59  59 100 CALM      30.20S VSB 1/2
DOUGLAS*       CLOUDY    59  55  88 N3        30.23R FOG
$$



USA.gov is the U.S. government's official web portal to all federal, state and local government web resources and services.